Home > Weather > Hallein > Past weeks

Flag for Austria Weather for the Past 2 Weeks in Hallein, Salzburg, Austria

Now
52 °F

Light rain. Broken clouds.


Feels Like: 51 °F
Forecast: 42 / 50 °F
Wind: 5 mph from Northeast

Location: Salzburg-Flughafen

Current Time: May 1, 2016 at 12:36:57 PM

Latest Report: May 1, 2016 at 11:50 AM


Visibility: N/A

Pressure: 29.98 "Hg

Humidity: 82%

Dew Point: 46 °F

Location of HalleinLocation

Historic Weather in Hallein — Graph

°F

Hallein Temperature Yesterday

Maximum temperature yesterday: 68 °F (at 3:20 PM)
Minimum temperature yesterday: 37 °F (at 1:50 AM)
Average temperature yesterday: 53 °F

High & Low Weather Summary for the Past Weeks

 TemperatureHumidityPressure
High68 °F (Apr 21, 4:50 PM)100% (Apr 17, 12:20 AM)30.36 "Hg (Apr 17, 12:20 AM)
Low30 °F (Apr 28, 3:50 AM)26% (Apr 30, 4:20 PM)29.59 "Hg (Apr 17, 3:50 AM)
Average47 °F72%29.96 "Hg
* Reported Apr 16 11:20 AM — May 1 11:20 AM, Hallein, Weather by CustomWeather, © 2016

Note: Actual official high and low records may vary slightly from our data, if they occured in-between our weather recording intervals... More about our weather records

Advertising

Hallein Weather History for the Previous 24 Hours

Scroll right to see more
 ConditionsComfort  
Time TempWeatherWind HumidityBarometerVisibility
11:20 AM
Sun, May 1
52 °FLight rain. Broken clouds.5 mph72%29.98 "HgN/A
10:50 AM52 °FBroken clouds.7 mph72%29.95 "HgN/A
10:20 AM52 °FBroken clouds.3 mph72%29.95 "HgN/A
9:50 AM50 °FPartly sunny.3 mph82%29.95 "HgN/A
8:50 AM50 °FPartly sunny.9 mph76%29.92 "HgN/A
8:20 AM50 °FPartly sunny.9 mph76%29.92 "HgN/A
7:50 AM50 °FPartly sunny.9 mph76%29.89 "HgN/A
7:20 AM50 °FPartly sunny.9 mph71%29.89 "HgN/A
6:20 AM50 °FClear.9 mph71%29.86 "Hg10 mi
5:50 AM50 °FClear.9 mph71%29.86 "Hg10 mi
5:20 AM50 °FPassing clouds.12 mph67%29.86 "HgN/A
4:20 AM48 °FPassing clouds.9 mph62%29.83 "HgN/A
3:50 AM48 °FPassing clouds.2 mph62%29.83 "HgN/A
3:20 AM54 °FPassing clouds.8 mph41%29.83 "HgN/A
2:50 AM55 °FPassing clouds.6 mph36%29.83 "HgN/A
2:20 AM55 °FPartly cloudy.8 mph38%29.83 "HgN/A
1:50 AM55 °FPassing clouds.9 mph38%29.83 "HgN/A
1:20 AM55 °FPassing clouds.5 mph38%29.83 "HgN/A
12:50 AM55 °FPassing clouds.7 mph38%29.83 "HgN/A
11:50 PM
Sat, Apr 30
55 °FPassing clouds.6 mph38%29.83 "HgN/A
11:20 PM54 °FPartly cloudy.3 mph47%29.86 "HgN/A
10:50 PM54 °FClear.5 mph47%29.86 "Hg10 mi
10:20 PM55 °FClear.5 mph41%29.86 "Hg10 mi
9:50 PM52 °FClear.1 mph54%29.86 "Hg10 mi
9:20 PM55 °FClear.2 mph41%29.86 "Hg10 mi
8:50 PM57 °FSunny.5 mph41%29.86 "Hg10 mi
8:20 PM59 °FScattered clouds.9 mph36%29.86 "HgN/A
7:50 PM61 °FPartly sunny.12 mph31%29.86 "HgN/A
7:20 PM63 °FPartly sunny.14 mph32%29.86 "HgN/A
6:50 PM63 °FPartly sunny.13 mph34%29.86 "HgN/A
6:20 PM64 °FPartly sunny.15 mph30%29.86 "HgN/A
5:50 PM64 °FPartly sunny.14 mph30%29.86 "HgN/A
5:20 PM64 °FPartly sunny.16 mph28%29.86 "HgN/A
4:50 PM66 °FScattered clouds.16 mph26%29.86 "HgN/A
4:20 PM66 °FPassing clouds.14 mph26%29.89 "HgN/A
3:50 PM68 °FPassing clouds.16 mph28%29.89 "HgN/A
3:20 PM68 °FPassing clouds.16 mph30%29.89 "HgN/A
2:50 PM66 °FPassing clouds.12 mph30%29.92 "HgN/A
2:20 PM66 °FPassing clouds.6 mph28%29.92 "HgN/A
1:50 PM66 °FPassing clouds.6 mph28%29.95 "HgN/A
1:20 PM64 °FPassing clouds.9 mph40%29.95 "HgN/A
12:50 PM64 °FPassing clouds.8 mph40%29.98 "HgN/A
12:20 PM61 °FPassing clouds.6 mph45%29.98 "HgN/A
Weather by CustomWeather, © 2016

See weather overviewHow to use our weather pages